Home > Weather > Bitterfeld-Wolfen > Past weeks

Flag for Germany Past Weather in Bitterfeld-Wolfen, Saxony-Anhalt, Germany — Yesterday and Last 2 Weeks

Now
61 °F

Clear.


Feels Like: 61 °F
Forecast: 53 / 73 °F
Wind: 9 mph from Northwest

Location: Leipzig-Schkeuditz

Current Time: Aug 30, 2016 at 1:35:46 AM

Latest Report: Aug 30, 2016 at 12:50 AM


Visibility: 10 mi

Pressure: 30.21 "Hg

Humidity: 77%

Dew Point: 54 °F

Location of Bitterfeld-WolfenLocation

Past Weather in Bitterfeld-Wolfen — Graph

°F

Bitterfeld-Wolfen Temperature Yesterday

Maximum temperature yesterday: 77 °F (at 11:50 AM)
Minimum temperature yesterday: 64 °F (at 11:20 PM)
Average temperature yesterday: 70 °F

High & Low Weather Summary for the Past Weeks

 TemperatureHumidityPressure
High95 °F (Aug 28, 3:50 PM)100% (Aug 17, 4:20 AM)30.33 "Hg (Aug 17, 4:20 AM)
Low48 °F (Aug 18, 4:20 AM)19% (Aug 26, 4:50 PM)29.80 "Hg (Aug 18, 3:50 PM)
Average69 °F63%30.07 "Hg
* Reported Aug 15 12:20 AM — Aug 30 12:20 AM, Bitterfeld-Wolfen, Weather by CustomWeather, © 2016

Note: Actual official high and low records may vary slightly from our data, if they occured in-between our weather recording intervals... More about our weather records

Advertising

Bitterfeld-Wolfen Weather History for the Previous 24 Hours

Scroll right to see more
 ConditionsComfort  
Time TempWeatherWind HumidityBarometerVisibility
12:20 AM
Tue, Aug 30
63 °FClear.10 mph73%30.21 "Hg10 mi
11:50 PM
Mon, Aug 29
64 °FClear.12 mph68%30.18 "Hg10 mi
11:20 PM64 °FClear.13 mph68%30.18 "Hg10 mi
10:50 PM66 °FClear.13 mph64%30.18 "Hg10 mi
10:20 PM66 °FClear.9 mph64%30.15 "Hg10 mi
9:50 PM66 °FPassing clouds.8 mph64%30.15 "HgN/A
9:20 PM66 °FClear.9 mph64%30.12 "Hg10 mi
8:50 PM66 °FSunny.7 mph64%30.12 "Hg10 mi
8:20 PM68 °FScattered clouds.8 mph60%30.09 "HgN/A
7:50 PM70 °FSunny.10 mph60%30.09 "Hg10 mi
7:20 PM70 °FSunny.12 mph60%30.09 "Hg10 mi
6:50 PM72 °FPassing clouds.13 mph50%30.07 "HgN/A
6:20 PM72 °FSunny.10 mph53%30.07 "Hg10 mi
5:50 PM72 °FPartly sunny.10 mph53%30.07 "HgN/A
5:20 PM72 °FPartly sunny.14 mph53%30.07 "HgN/A
4:50 PM73 °FPassing clouds.13 mph50%30.04 "HgN/A
4:20 PM73 °FSunny.16 mph50%30.04 "Hg10 mi
3:50 PM73 °FSunny.18 mph50%30.04 "Hg10 mi
3:20 PM75 °FBroken clouds.23 mph47%30.04 "HgN/A
2:50 PM73 °FBroken clouds.18 mph50%30.04 "HgN/A
2:20 PM77 °FBroken clouds.20 mph44%30.04 "HgN/A
1:50 PM75 °FSunny.22 mph47%30.04 "Hg10 mi
1:20 PM77 °FPassing clouds.18 mph42%30.04 "HgN/A
12:50 PM77 °FPassing clouds.22 mph44%30.01 "HgN/A
12:20 PM77 °FScattered clouds.21 mph44%30.01 "HgN/A
11:50 AM77 °FScattered clouds.20 mph47%30.01 "HgN/A
11:20 AM75 °FScattered clouds.18 mph50%30.01 "HgN/A
10:50 AM75 °FScattered clouds.18 mph50%30.01 "HgN/A
10:20 AM73 °FPassing clouds.18 mph57%30.01 "HgN/A
9:50 AM72 °FPassing clouds.18 mph61%30.01 "HgN/A
9:20 AM72 °FPassing clouds.16 mph61%30.01 "HgN/A
8:50 AM70 °FSunny.14 mph69%30.01 "Hg10 mi
8:20 AM66 °FSunny.10 mph78%30.01 "Hg10 mi
7:50 AM66 °FSunny.8 mph78%30.01 "Hg10 mi
7:20 AM66 °FSunny.8 mph83%30.01 "Hg10 mi
6:50 AM66 °FPassing clouds.7 mph83%29.98 "HgN/A
6:20 AM66 °FPassing clouds.9 mph83%29.98 "HgN/A
5:50 AM66 °FClear.8 mph83%29.98 "Hg10 mi
5:20 AM66 °FClear.6 mph83%29.98 "Hg10 mi
4:50 AM66 °FClear.6 mph83%29.98 "Hg10 mi
4:20 AM68 °FOvercast.5 mph83%29.98 "HgN/A
3:50 AM68 °FOvercast.3 mph83%29.98 "HgN/A
3:20 AM68 °FPassing clouds.6 mph83%29.98 "HgN/A
2:50 AM68 °FPassing clouds.7 mph83%29.98 "HgN/A
2:20 AM66 °FPartly cloudy.9 mph88%29.98 "HgN/A
1:50 AM66 °FPassing clouds.6 mph88%29.95 "HgN/A
1:20 AM68 °FPassing clouds.9 mph83%29.98 "HgN/A
Weather by CustomWeather, © 2016

See weather overviewHow to use our weather pages